This is the latest recevied weather packets stored in our database for station/object KC0RKM-13. If no packets are shown the sender has not sent any weather packets the latest 10 day(s).
| Time | Temp. | Humidity | Pressure | Rain* | Wind** | Luminosity | Snow |
|---|---|---|---|---|---|---|---|
| 1787794204 | 26.11° C | 68% | 1016.2 hPa | 0 mm | - | - | - |
| 1787793603 | 26.67° C | 69% | 1016.2 hPa | 0 mm | - | - | - |
| 1787793008 | 27.22° C | 67% | 1015.8 hPa | 0 mm | - | - | - |
| 1787792409 | 27.22° C | 65% | 1015.8 hPa | 0 mm | - | - | - |
| 1787791804 | 27.78° C | 63% | 1015.7 hPa | 0 mm | - | - | - |
| 1787791204 | 28.33° C | 61% | 1015.6 hPa | 0 mm | - | - | - |
| 1787790604 | 28.89° C | 59% | 1015.3 hPa | 0 mm | - | - | - |
| 1787790004 | 30° C | 56% | 1015.3 hPa | 0 mm | - | - | - |
| 1787789404 | 30° C | 54% | 1015 hPa | 0 mm | - | - | - |
| 1787788807 | 30° C | 53% | 1015.1 hPa | 0 mm | - | - | - |
| 1787788204 | 30.56° C | 52% | 1015 hPa | 0 mm | - | - | - |
| 1787787604 | 30° C | 52% | 1015 hPa | 0 mm | - | - | - |
| 1787787004 | 30° C | 53% | 1015.1 hPa | 0 mm | - | - | - |
| 1787786404 | 30° C | 52% | 1014.9 hPa | 0 mm | - | - | - |
| 1787785804 | 31.11° C | 52% | 1015.2 hPa | 0 mm | - | - | - |
| 1787785204 | 30.56° C | 52% | 1015.1 hPa | 0 mm | - | - | - |
| 1787784604 | 31.11° C | 50% | 1015.1 hPa | 0 mm | - | - | - |
| 1787784005 | 31.11° C | 47% | 1015.1 hPa | 0 mm | - | - | - |
| 1787783405 | 31.11° C | 47% | 1015.1 hPa | 0 mm | - | - | - |
| 1787782803 | 32.22° C | 45% | 1015.3 hPa | 0 mm | - | - | - |
| 1787782203 | 31.67° C | 43% | 1015.3 hPa | 0 mm | - | - | - |
| 1787781603 | 31.67° C | 48% | 1015.4 hPa | 0 mm | - | - | - |
| 1787781004 | 31.67° C | 46% | 1015.4 hPa | 0 mm | - | - | - |
| 1787780404 | 31.67° C | 43% | 1015.7 hPa | 0 mm | - | - | - |
| 1787779808 | 32.22° C | 44% | 1015.2 hPa | 0 mm | - | - | - |
* Rain latest hour (hover to see other rain measurements)
** Current wind speed in m/s (hover to see current wind gust speed)